Time,TemperatureF,DewpointF,PressureIn,WindDirection,WindDirectionDegrees,WindSpeedMPH,WindSpeedGustMPH,Humidity,HourlyPrecipIn,Conditions,Clouds,dailyrainin,SoftwareType,DateUTC
2013-01-10 00:00:00,36.0,34.0,29.93,North,0,0.0,-999.0,92,-99.99,,,-99.99,,2013-01-10 08:00:00,
2013-01-10 00:21:00,36.0,34.0,29.93,North,0,0.0,-999.0,92,-99.99,,,-99.99,,2013-01-10 08:21:00,
2013-01-10 00:32:00,36.0,34.0,29.93,North,0,0.0,-999.0,92,-99.99,,,-99.99,,2013-01-10 08:32:00,
2013-01-10 00:42:00,36.0,34.0,29.93,North,0,0.0,-999.0,92,-99.99,,,-99.99,,2013-01-10 08:42:00,
2013-01-10 00:52:00,36.0,34.0,29.93,North,0,0.0,-999.0,92,-99.99,,,-99.99,,2013-01-10 08:52:00,
2013-01-10 01:00:00,36.0,35.0,29.94,West,270,1.0,-999.0,95,-99.99,,,-99.99,,2013-01-10 09:00:00,
2013-01-10 01:22:00,36.0,35.0,29.94,West,270,1.0,-999.0,95,-99.99,,,-99.99,,2013-01-10 09:22:00,
2013-01-10 01:32:00,36.0,35.0,29.94,West,270,1.0,-999.0,95,-99.99,,,-99.99,,2013-01-10 09:32:00,
2013-01-10 01:42:00,36.0,35.0,29.94,West,270,1.0,-999.0,95,-99.99,,,-99.99,,2013-01-10 09:42:00,
2013-01-10 01:52:00,36.0,35.0,29.94,West,270,1.0,-999.0,95,-99.99,,,-99.99,,2013-01-10 09:52:00,
2013-01-10 02:00:00,35.0,34.0,29.96,North,0,0.0,-999.0,94,-99.99,,,-99.99,,2013-01-10 10:00:00,
2013-01-10 02:22:00,35.0,34.0,29.96,North,0,0.0,-999.0,94,-99.99,,,-99.99,,2013-01-10 10:22:00,
2013-01-10 02:32:00,35.0,34.0,29.96,North,0,0.0,-999.0,94,-99.99,,,-99.99,,2013-01-10 10:32:00,
2013-01-10 02:42:00,35.0,34.0,29.96,North,0,0.0,-999.0,94,-99.99,,,-99.99,,2013-01-10 10:42:00,
2013-01-10 02:52:00,35.0,34.0,29.96,North,0,0.0,-999.0,94,-99.99,,,-99.99,,2013-01-10 10:52:00,
2013-01-10 03:00:00,35.0,34.0,29.98,WNW,300,3.0,-999.0,93,-99.99,,,-99.99,,2013-01-10 11:00:00,
2013-01-10 03:22:00,35.0,34.0,29.98,WNW,300,3.0,-999.0,93,-99.99,,,-99.99,,2013-01-10 11:22:00,
2013-01-10 03:32:00,35.0,34.0,29.98,WNW,300,3.0,-999.0,93,-99.99,,,-99.99,,2013-01-10 11:32:00,
2013-01-10 03:42:00,35.0,34.0,29.98,WNW,300,3.0,-999.0,93,-99.99,,,-99.99,,2013-01-10 11:42:00,
2013-01-10 03:52:00,35.0,34.0,29.98,WNW,300,3.0,-999.0,93,-99.99,,,-99.99,,2013-01-10 11:52:00,
2013-01-10 04:00:00,36.0,34.0,29.99,West,270,6.0,-999.0,91,-99.99,,,-99.99,,2013-01-10 12:00:00,
2013-01-10 04:22:00,36.0,34.0,29.99,West,270,6.0,-999.0,91,-99.99,,,-99.99,,2013-01-10 12:22:00,
2013-01-10 04:32:00,36.0,34.0,29.99,West,270,6.0,-999.0,91,-99.99,,,-99.99,,2013-01-10 12:32:00,
2013-01-10 04:42:00,36.0,34.0,29.99,West,270,6.0,-999.0,91,-99.99,,,-99.99,,2013-01-10 12:42:00,
2013-01-10 04:52:00,36.0,34.0,29.99,West,270,6.0,-999.0,91,-99.99,,,-99.99,,2013-01-10 12:52:00,
2013-01-10 05:00:00,36.0,34.0,30.00,WNW,290,2.0,-999.0,89,-99.99,,,-99.99,,2013-01-10 13:00:00,
2013-01-10 05:22:00,36.0,34.0,30.00,WNW,290,2.0,-999.0,89,-99.99,,,-99.99,,2013-01-10 13:22:00,
2013-01-10 05:32:00,36.0,34.0,30.00,WNW,290,2.0,-999.0,89,-99.99,,,-99.99,,2013-01-10 13:32:00,
2013-01-10 05:42:00,36.0,34.0,30.00,WNW,290,2.0,-999.0,89,-99.99,,,-99.99,,2013-01-10 13:42:00,
2013-01-10 05:52:00,36.0,34.0,30.00,WNW,290,2.0,-999.0,89,-99.99,,,-99.99,,2013-01-10 13:52:00,
2013-01-10 06:00:00,35.0,33.0,30.00,WNW,300,2.0,-999.0,91,-99.99,,,-99.99,,2013-01-10 14:00:00,
2013-01-10 06:22:00,35.0,33.0,30.00,WNW,300,2.0,-999.0,91,-99.99,,,-99.99,,2013-01-10 14:22:00,
2013-01-10 06:32:00,35.0,33.0,30.00,WNW,300,2.0,-999.0,91,-99.99,,,-99.99,,2013-01-10 14:32:00,
2013-01-10 06:42:00,35.0,33.0,30.00,WNW,300,2.0,-999.0,91,-99.99,,,-99.99,,2013-01-10 14:42:00,
2013-01-10 06:52:00,35.0,33.0,30.00,WNW,300,2.0,-999.0,91,-99.99,,,-99.99,,2013-01-10 14:52:00,
2013-01-10 07:00:00,38.0,35.0,30.03,SSW,210,3.0,-999.0,91,-99.99,,,-99.99,,2013-01-10 15:00:00,
2013-01-10 07:22:00,38.0,35.0,30.03,SSW,210,3.0,-999.0,91,-99.99,,,-99.99,,2013-01-10 15:22:00,
2013-01-10 07:32:00,38.0,35.0,30.03,SSW,210,3.0,-999.0,91,-99.99,,,-99.99,,2013-01-10 15:32:00,
2013-01-10 07:42:00,38.0,35.0,30.03,SSW,210,3.0,-999.0,91,-99.99,,,-99.99,,2013-01-10 15:42:00,
2013-01-10 07:52:00,38.0,35.0,30.03,SSW,210,3.0,-999.0,91,-99.99,,,-99.99,,2013-01-10 15:52:00,
2013-01-10 08:00:00,38.0,35.0,30.06,SW,230,2.0,-999.0,91,-99.99,,,-99.99,,2013-01-10 16:00:00,
2013-01-10 08:22:00,38.0,35.0,30.06,SW,230,2.0,-999.0,91,-99.99,,,-99.99,,2013-01-10 16:22:00,
2013-01-10 08:32:00,38.0,35.0,30.06,SW,230,2.0,-999.0,91,-99.99,,,-99.99,,2013-01-10 16:32:00,
2013-01-10 08:42:00,38.0,35.0,30.06,SW,230,2.0,-999.0,91,-99.99,,,-99.99,,2013-01-10 16:42:00,
2013-01-10 08:52:00,38.0,35.0,30.06,SW,230,2.0,-999.0,91,-99.99,,,-99.99,,2013-01-10 16:52:00,
2013-01-10 09:00:00,37.0,34.0,30.08,NW,320,5.0,-999.0,89,-99.99,,,-99.99,,2013-01-10 17:00:00,
2013-01-10 09:33:00,37.0,34.0,30.08,NW,320,5.0,-999.0,89,-99.99,,,-99.99,,2013-01-10 17:33:00,
2013-01-10 09:42:00,37.0,34.0,30.08,NW,320,5.0,-999.0,89,-99.99,,,-99.99,,2013-01-10 17:42:00,
2013-01-10 09:52:00,37.0,34.0,30.08,NW,320,5.0,-999.0,89,-99.99,,,-99.99,,2013-01-10 17:52:00,
2013-01-10 10:00:00,38.0,32.0,30.09,WNW,290,7.0,-999.0,79,-99.99,,,-99.99,,2013-01-10 18:00:00,
2013-01-10 10:22:00,38.0,32.0,30.09,WNW,290,7.0,-999.0,79,-99.99,,,-99.99,,2013-01-10 18:22:00,
2013-01-10 10:32:00,38.0,32.0,30.09,WNW,290,7.0,-999.0,79,-99.99,,,-99.99,,2013-01-10 18:32:00,
2013-01-10 10:43:00,38.0,32.0,30.09,WNW,290,7.0,-999.0,79,-99.99,,,-99.99,,2013-01-10 18:43:00,
2013-01-10 10:52:00,38.0,32.0,30.09,WNW,290,7.0,-999.0,79,-99.99,,,-99.99,,2013-01-10 18:52:00,
2013-01-10 11:00:00,40.0,31.0,30.10,NW,320,9.0,-999.0,70,-99.99,,,-99.99,,2013-01-10 19:00:00,
2013-01-10 11:22:00,40.0,31.0,30.10,NW,320,9.0,-999.0,70,-99.99,,,-99.99,,2013-01-10 19:22:00,
2013-01-10 11:32:00,40.0,31.0,30.10,NW,320,9.0,-999.0,70,-99.99,,,-99.99,,2013-01-10 19:32:00,
2013-01-10 11:42:00,40.0,31.0,30.10,NW,320,9.0,-999.0,70,-99.99,,,-99.99,,2013-01-10 19:42:00,
2013-01-10 11:52:00,40.0,31.0,30.10,NW,320,9.0,-999.0,70,-99.99,,,-99.99,,2013-01-10 19:52:00,
2013-01-10 12:00:00,40.0,30.0,30.09,NW,320,11.0,-999.0,66,-99.99,,,-99.99,,2013-01-10 20:00:00,
2013-01-10 12:22:00,40.0,30.0,30.09,NW,320,11.0,-999.0,66,-99.99,,,-99.99,,2013-01-10 20:22:00,
2013-01-10 12:32:00,40.0,30.0,30.09,NW,320,11.0,-999.0,66,-99.99,,,-99.99,,2013-01-10 20:32:00,
2013-01-10 12:42:00,40.0,30.0,30.09,NW,320,11.0,-999.0,66,-99.99,,,-99.99,,2013-01-10 20:42:00,
2013-01-10 12:52:00,40.0,30.0,30.09,NW,320,11.0,-999.0,66,-99.99,,,-99.99,,2013-01-10 20:52:00,
2013-01-10 13:00:00,42.0,30.0,30.08,NW,320,10.0,-999.0,61,-99.99,,,-99.99,,2013-01-10 21:00:00,
2013-01-10 13:22:00,42.0,30.0,30.08,NW,320,10.0,-999.0,61,-99.99,,,-99.99,,2013-01-10 21:22:00,
2013-01-10 13:32:00,42.0,30.0,30.08,NW,320,10.0,-999.0,61,-99.99,,,-99.99,,2013-01-10 21:32:00,
2013-01-10 13:42:00,42.0,30.0,30.08,NW,320,10.0,-999.0,61,-99.99,,,-99.99,,2013-01-10 21:42:00,
2013-01-10 13:52:00,42.0,30.0,30.08,NW,320,10.0,-999.0,61,-99.99,,,-99.99,,2013-01-10 21:52:00,
2013-01-10 14:00:00,43.0,29.0,30.08,NW,310,10.0,-999.0,58,-99.99,,,-99.99,,2013-01-10 22:00:00,
2013-01-10 14:22:00,43.0,29.0,30.08,NW,310,10.0,-999.0,58,-99.99,,,-99.99,,2013-01-10 22:22:00,
2013-01-10 14:32:00,43.0,29.0,30.08,NW,310,10.0,-999.0,58,-99.99,,,-99.99,,2013-01-10 22:32:00,
2013-01-10 14:42:00,43.0,29.0,30.08,NW,310,10.0,-999.0,58,-99.99,,,-99.99,,2013-01-10 22:42:00,
2013-01-10 15:00:00,42.0,29.0,30.09,NW,320,10.0,-999.0,60,-99.99,,,-99.99,,2013-01-10 23:00:00,
2013-01-10 15:22:00,42.0,29.0,30.09,NW,320,10.0,-999.0,60,-99.99,,,-99.99,,2013-01-10 23:22:00,
2013-01-10 15:32:00,42.0,29.0,30.09,NW,320,10.0,-999.0,60,-99.99,,,-99.99,,2013-01-10 23:32:00,
2013-01-10 15:42:00,42.0,29.0,30.09,NW,320,10.0,-999.0,60,-99.99,,,-99.99,,2013-01-10 23:42:00,
2013-01-10 15:52:00,42.0,29.0,30.09,NW,320,10.0,-999.0,60,-99.99,,,-99.99,,2013-01-10 23:52:00,
2013-01-10 16:00:00,41.0,29.0,30.10,NNW,330,10.0,-999.0,61,-99.99,,,-99.99,,2013-01-11 00:00:00,
2013-01-10 16:22:00,41.0,29.0,30.10,NNW,330,10.0,-999.0,61,-99.99,,,-99.99,,2013-01-11 00:22:00,
2013-01-10 16:32:00,41.0,29.0,30.10,NNW,330,10.0,-999.0,61,-99.99,,,-99.99,,2013-01-11 00:32:00,
2013-01-10 16:42:00,41.0,29.0,30.10,NNW,330,10.0,-999.0,61,-99.99,,,-99.99,,2013-01-11 00:42:00,
2013-01-10 16:52:00,41.0,29.0,30.10,NNW,330,10.0,-999.0,61,-99.99,,,-99.99,,2013-01-11 00:52:00,
2013-01-10 17:00:00,40.0,30.0,30.11,NW,320,9.0,-999.0,67,-99.99,,,-99.99,,2013-01-11 01:00:00,
2013-01-10 17:22:00,40.0,30.0,30.11,NW,320,9.0,-999.0,67,-99.99,,,-99.99,,2013-01-11 01:22:00,
2013-01-10 17:32:00,40.0,30.0,30.11,NW,320,9.0,-999.0,67,-99.99,,,-99.99,,2013-01-11 01:32:00,
2013-01-10 17:42:00,40.0,30.0,30.11,NW,320,9.0,-999.0,67,-99.99,,,-99.99,,2013-01-11 01:42:00,
2013-01-10 17:52:00,40.0,30.0,30.11,NW,320,9.0,-999.0,67,-99.99,,,-99.99,,2013-01-11 01:52:00,
2013-01-10 18:00:00,40.0,29.0,30.12,NNW,340,8.0,-999.0,65,-99.99,,,-99.99,,2013-01-11 02:00:00,
2013-01-10 18:22:00,40.0,29.0,30.12,NNW,340,8.0,-999.0,65,-99.99,,,-99.99,,2013-01-11 02:22:00,
2013-01-10 18:32:00,40.0,29.0,30.12,NNW,340,8.0,-999.0,65,-99.99,,,-99.99,,2013-01-11 02:32:00,
2013-01-10 18:42:00,40.0,29.0,30.12,NNW,340,8.0,-999.0,65,-99.99,,,-99.99,,2013-01-11 02:42:00,
2013-01-10 18:52:00,40.0,29.0,30.12,NNW,340,8.0,-999.0,65,-99.99,,,-99.99,,2013-01-11 02:52:00,
2013-01-10 19:00:00,39.0,30.0,30.13,NW,320,5.0,-999.0,70,-99.99,,,-99.99,,2013-01-11 03:00:00,
2013-01-10 19:22:00,39.0,30.0,30.13,NW,320,5.0,-999.0,70,-99.99,,,-99.99,,2013-01-11 03:22:00,
2013-01-10 19:32:00,39.0,30.0,30.13,NW,320,5.0,-999.0,70,-99.99,,,-99.99,,2013-01-11 03:32:00,
2013-01-10 19:42:00,39.0,30.0,30.13,NW,320,5.0,-999.0,70,-99.99,,,-99.99,,2013-01-11 03:42:00,
2013-01-10 19:52:00,39.0,30.0,30.13,NW,320,5.0,-999.0,70,-99.99,,,-99.99,,2013-01-11 03:52:00,
2013-01-10 20:22:00,39.0,30.0,30.14,NW,320,8.0,-999.0,70,-99.99,,,-99.99,,2013-01-11 04:22:00,
2013-01-10 20:32:00,39.0,30.0,30.14,NW,320,8.0,-999.0,70,-99.99,,,-99.99,,2013-01-11 04:32:00,
2013-01-10 20:42:00,39.0,30.0,30.14,NW,320,8.0,-999.0,70,-99.99,,,-99.99,,2013-01-11 04:42:00,
2013-01-10 20:52:00,39.0,30.0,30.14,NW,320,8.0,-999.0,70,-99.99,,,-99.99,,2013-01-11 04:52:00,
2013-01-10 21:00:00,39.0,30.0,30.14,NW,310,8.0,-999.0,70,-99.99,,,-99.99,,2013-01-11 05:00:00,
2013-01-10 21:22:00,39.0,30.0,30.14,NW,310,8.0,-999.0,70,-99.99,,,-99.99,,2013-01-11 05:22:00,
2013-01-10 21:32:00,39.0,30.0,30.14,NW,310,8.0,-999.0,70,-99.99,,,-99.99,,2013-01-11 05:32:00,
2013-01-10 21:42:00,39.0,30.0,30.14,NW,310,8.0,-999.0,70,-99.99,,,-99.99,,2013-01-11 05:42:00,
2013-01-10 21:52:00,39.0,30.0,30.14,NW,310,8.0,-999.0,70,-99.99,,,-99.99,,2013-01-11 05:52:00,
2013-01-10 22:00:00,38.0,30.0,30.15,NNW,330,6.0,-999.0,70,-99.99,,,-99.99,,2013-01-11 06:00:00,
2013-01-10 22:22:00,38.0,30.0,30.15,NNW,330,6.0,-999.0,70,-99.99,,,-99.99,,2013-01-11 06:22:00,
2013-01-10 22:32:00,38.0,30.0,30.15,NNW,330,6.0,-999.0,70,-99.99,,,-99.99,,2013-01-11 06:32:00,
2013-01-10 22:42:00,38.0,30.0,30.15,NNW,330,6.0,-999.0,70,-99.99,,,-99.99,,2013-01-11 06:42:00,
2013-01-10 22:52:00,38.0,30.0,30.15,NNW,330,6.0,-999.0,70,-99.99,,,-99.99,,2013-01-11 06:52:00,
2013-01-10 23:00:00,37.0,30.0,30.17,NNW,340,1.0,-999.0,76,-99.99,,,-99.99,,2013-01-11 07:00:00,
2013-01-10 23:22:00,37.0,30.0,30.17,NNW,340,1.0,-999.0,76,-99.99,,,-99.99,,2013-01-11 07:22:00,
2013-01-10 23:32:00,37.0,30.0,30.17,NNW,340,1.0,-999.0,76,-99.99,,,-99.99,,2013-01-11 07:32:00,
2013-01-10 23:42:00,37.0,30.0,30.17,NNW,340,1.0,-999.0,76,-99.99,,,-99.99,,2013-01-11 07:42:00,
2013-01-10 23:52:00,37.0,30.0,30.17,NNW,340,1.0,-999.0,76,-99.99,,,-99.99,,2013-01-11 07:52:00,